Zurück zum Katalog

NOAA 16 DEB

AktivSSO
NORAD 41298·DEBRIS·🇺🇸 United States

Gestartet Sep 21, 2000 von Vandenberg Space Force Base

Loading…

Nächste Überflüge (nächste 24 Stunden)

TLE

AktuellSource: Space-Track

Epoche: Sep 14, 2026, 10:36 UTC

1 41298U 00055HA  26257.44188908  .00002297  00000-0  92950-3 0  9996
2 41298  98.7061 333.1338 0050194 126.8321 233.7480 14.28085685553415

Verfolge NOAA 16 DEB in Echtzeit mit AllMySat

Download on the App Store